Content
SEND FEEDBACK

Daily
Averages
Monthly
Summary
United States of America

BURKETT, TEXAS


Home > North America > United States > Texas
Elevation: 1550 feet     Latitude: 32 00N     Longitude: 099 13W

WEATHER
 
SELECT A DAY
Number of Records: 65,226;   Date Range: 1/26/04 - 8/22/14
 
SHARE

PRINT THIS DATA

[ ← Previous Day ]
WEATHER ALMANAC - FEBRUARY 13, 2013
[ Next Day → ]
[ °C ]   °F
Weather ElementAverageHighLow
Temperature45.7 °F60.6 °F (4:15 pm)30.9 °F (7:35 am)
Dewpoint25.5 °F32.7 °F (9:15 am)16.5 °F (2:15 pm)
Humidity53.2 %92 % (4:35 am)19 % (2:15 pm)
Barometer30.08 in30.15 in (9:15 am)30.01 in (4:15 pm)
Wind Speed4.7 mph11.5 mph (12:55 am)
Weather ElementAverage
Visibility10 mi
Wind DirectionWSW (231.7 °)

Weather ElementTotal
Precipitation---
Heating Degree Days19.3 (Base 65)
Averaged from 66 records on February 13, 2013
WEATHER CONDITIONS BREAKOUT
WIND DIRECTION BREAKOUT
WEATHER BY HOUR - FEBRUARY 13, 2013
[ °C ]   °F
Local TimeTemperatureDewpointHumidityBarometerVisibilityWind DirectionWind SpeedGust SpeedPrecipitationEventsConditions
12:35 AM37.0 °F31.8 °F81 %30.11 in10.0 miNNW (340°)10.4 mphScattered Clouds
12:55 AM37.2 °F31.6 °F80 %30.11 in10.0 miNNW (340°)11.5 mphScattered Clouds
1:15 AM36.7 °F31.6 °F82 %30.11 in10.0 miNNW (340°)10.4 mphClear
1:35 AM36.3 °F31.5 °F83 %30.10 in10.0 miNNW (340°)10.4 mphClear
1:55 AM36.0 °F31.5 °F84 %30.10 in10.0 miNorth (350°)8.1 mphClear
2:15 AM34.9 °F31.1 °F86 %30.10 in10.0 miNNW (340°)6.9 mphClear
2:35 AM34.9 °F31.1 °F86 %30.10 in10.0 miNNW (340°)4.6 mphClear
2:55 AM34.2 °F31.1 °F89 %30.10 in10.0 miNNW (330°)4.6 mphClear
3:15 AM34.3 °F30.9 °F87 %30.10 in10.0 miNNW (330°)3.5 mphClear
3:35 AM34.0 °F30.9 °F89 %30.11 in10.0 miCalmClear
3:55 AM33.6 °F30.6 °F89 %30.11 in10.0 miWest (260°)3.5 mphClear
4:15 AM32.4 °F30.0 °F91 %30.11 in10.0 miWSW (240°)3.5 mphClear
4:35 AM32.4 °F30.2 °F92 %30.11 in10.0 miWest (280°)3.5 mphClear
4:55 AM32.5 °F30.4 °F92 %30.10 in10.0 miCalmClear
5:15 AM32.4 °F30.4 °F92 %30.10 in10.0 miWest (260°)4.6 mphClear
5:55 AM32.0 °F29.8 °F92 %30.11 in10.0 miWest (280°)5.8 mphClear
6:15 AM32.0 °F29.7 °F91 %30.11 in10.0 miWest (270°)4.6 mphClear
6:55 AM31.6 °F29.3 °F91 %30.11 in10.0 miWest (270°)3.5 mphClear
7:15 AM31.3 °F28.9 °F91 %30.12 in10.0 miCalmClear
7:35 AM30.9 °F28.2 °F90 %30.12 in10.0 miCalmClear
7:55 AM31.1 °F28.6 °F90 %30.13 in10.0 miCalmClear
8:15 AM32.2 °F30.0 °F92 %30.13 in10.0 miCalmClear
8:35 AM34.5 °F31.6 °F89 %30.14 in10.0 miCalmClear
8:55 AM37.6 °F32.5 °F82 %30.14 in10.0 miWNW (290°)4.6 mphClear
9:15 AM41.2 °F32.7 °F72 %30.15 in10.0 miWNW (300°)6.9 mphClear
9:35 AM44.6 °F32.5 °F63 %30.15 in10.0 miNNW (330°)5.8 mphClear
9:55 AM47.1 °F32.0 °F56 %30.15 in10.0 miNW (310°)4.6 mphClear
10:15 AM49.5 °F30.7 °F49 %30.15 in10.0 miNorth (350°)8.1 mphClear
10:35 AM50.7 °F29.3 °F44 %30.15 in10.0 miNNW (330°)5.8 mphClear
10:55 AM51.8 °F29.1 °F42 %30.15 in10.0 miNNW (330°)4.6 mphClear
11:15 AM52.5 °F26.2 °F36 %30.14 in10.0 miNNW (340°)5.8 mphClear
11:35 AM53.8 °F25.0 °F33 %30.14 in10.0 miCalmClear
11:55 AM54.5 °F25.2 °F32 %30.13 in10.0 miNorth (360°)4.6 mphClear
12:15 PM55.4 °F23.2 °F29 %30.12 in10.0 miWest (270°)5.8 mphClear
12:35 PM55.9 °F21.9 °F27 %30.11 in10.0 miWest (280°)5.8 mphClear
12:55 PM56.3 °F22.3 °F27 %30.09 in10.0 miNorth (10°)3.5 mphClear
1:15 PM57.2 °F20.1 °F24 %30.08 in10.0 miNNW (330°)8.1 mphClear
1:35 PM58.1 °F17.8 °F21 %30.07 in10.0 miNorth (360°)4.6 mphClear
1:55 PM59.0 °F17.1 °F20 %30.06 in10.0 miNNW (340°)6.9 mphClear
2:15 PM58.5 °F16.5 °F19 %30.05 in10.0 miWest (260°)8.1 mphClear
2:35 PM59.7 °F18.5 °F20 %30.04 in10.0 miWNW (300°)8.1 mphClear
2:55 PM60.3 °F20.5 °F22 %30.03 in10.0 miWNW (290°)4.6 mphClear
3:15 PM60.3 °F20.1 °F21 %30.03 in10.0 miNNW (340°)3.5 mphClear
3:55 PM60.3 °F19.9 °F21 %30.02 in10.0 miCalmClear
4:15 PM60.6 °F20.3 °F21 %30.01 in10.0 miWNW (300°)4.6 mphClear
4:35 PM60.6 °F18.0 °F19 %30.01 in10.0 miCalmClear
4:55 PM60.1 °F18.3 °F20 %30.01 in10.0 miSW (220°)5.8 mphClear
5:15 PM59.9 °F18.5 °F20 %30.01 in10.0 miWSW (240°)4.6 mphClear
5:55 PM58.1 °F20.3 °F23 %30.01 in10.0 miWest (260°)4.6 mphClear
6:15 PM56.5 °F21.4 °F26 %30.01 in10.0 miWSW (250°)4.6 mphClear
6:35 PM55.2 °F20.3 °F26 %30.01 in10.0 miSW (220°)3.5 mphClear
6:55 PM55.0 °F19.4 °F25 %30.03 in10.0 miSW (220°)3.5 mphClear
7:15 PM53.6 °F19.4 °F26 %30.03 in10.0 miSSW (210°)4.6 mphClear
7:55 PM48.9 °F23.2 °F36 %30.03 in10.0 miSSW (210°)3.5 mphClear
8:15 PM48.2 °F21.6 °F35 %30.03 in10.0 miSSW (200°)5.8 mphClear
8:35 PM48.2 °F21.2 °F34 %30.03 in10.0 miSSW (200°)4.6 mphClear
8:55 PM48.0 °F20.7 °F34 %30.03 in10.0 miSSW (210°)5.8 mphClear
9:15 PM47.3 °F21.2 °F36 %30.04 in10.0 miSW (220°)6.9 mphClear
9:35 PM45.7 °F23.0 °F41 %30.04 in10.0 miSSW (210°)6.9 mphClear
9:55 PM45.7 °F22.5 °F40 %30.05 in10.0 miSW (220°)4.6 mphClear
10:15 PM45.7 °F22.1 °F39 %30.05 in10.0 miSW (220°)3.5 mphClear
10:35 PM44.8 °F22.6 °F42 %30.05 in10.0 miSSW (210°)4.6 mphClear
10:55 PM44.1 °F23.2 °F44 %30.04 in10.0 miSSW (210°)4.6 mphClear
11:15 PM44.2 °F23.4 °F44 %30.04 in10.0 miSW (220°)4.6 mphClear
11:35 PM44.2 °F23.2 °F43 %30.05 in10.0 miSSW (200°)3.5 mphClear
11:55 PM43.3 °F23.0 °F45 %30.04 in10.0 miSSW (210°)5.8 mphClear
Hourly data recorded from KCOM, located miles away from Burkett, Texas







STORIES FROM OUR PARTNERS